| time (UTC) | temp F | wind direction | speed knots | gust knots | rain 1hr in | rain 24hr in | rain mn in | humidity % | barometer mb |
| 20260508134042 | 55 | 109 | 2.6 | 0.0 | 0.00 | 0.00 | 0.00 | 95 | 1014.6 |
| 20260508133542 | 55 | 111 | 0.9 | 0.0 | 0.00 | 0.00 | 0.00 | 95 | 1014.6 |
| 20260508133041 | 55 | 62 | 0.9 | 0.0 | 0.00 | 0.00 | 0.00 | 95 | 1014.6 |
| 20260508132541 | 55 | 78 | 1.7 | 0.0 | 0.00 | 0.00 | 0.00 | 95 | 1014.5 |
| 20260508132041 | 55 | 142 | 1.7 | 0.0 | 0.00 | 0.00 | 0.00 | 95 | 1014.5 |
| 20260508131540 | 55 | 116 | 1.7 | 0.0 | 0.00 | 0.00 | 0.00 | 95 | 1014.5 |
| 20260508131040 | 55 | 74 | 1.7 | 0.0 | 0.00 | 0.00 | 0.00 | 95 | 1014.2 |
| 20260508130543 | 55 | 78 | 1.7 | 0.0 | 0.00 | 0.00 | 0.00 | 95 | 1014.2 |
| 20260508130040 | 55 | 78 | 1.7 | 0.0 | 0.00 | 0.00 | 0.00 | 95 | 1014.2 |
| 20260508125539 | 55 | 63 | 1.7 | 0.0 | 0.00 | 0.00 | 0.00 | 95 | 1014.0 |
| 20260508125039 | 55 | 65 | 1.7 | 0.0 | 0.00 | 0.00 | 0.00 | 95 | 1014.0 |
| 20260508124539 | 55 | 71 | 1.7 | 0.0 | 0.00 | 0.00 | 0.00 | 95 | 1014.0 |
| 20260508124039 | 55 | 71 | 1.7 | 0.0 | 0.00 | 0.00 | 0.00 | 95 | 1013.9 |
| 20260508123538 | 55 | 71 | 2.6 | 0.0 | 0.00 | 0.00 | 0.00 | 95 | 1013.9 |
| 20260508123040 | 55 | 61 | 2.6 | 0.0 | 0.00 | 0.00 | 0.00 | 95 | 1013.9 |
| 20260508122537 | 55 | 71 | 2.6 | 0.0 | 0.00 | 0.00 | 0.00 | 95 | 1013.8 |
| 20260508122038 | 55 | 98 | 2.6 | 0.0 | 0.00 | 0.00 | 0.00 | 95 | 1013.8 |
| 20260508121541 | 55 | 61 | 1.7 | 0.0 | 0.00 | 0.00 | 0.00 | 95 | 1013.8 |
| 20260508121038 | 55 | 163 | 1.7 | 0.0 | 0.00 | 0.00 | 0.00 | 95 | 1013.6 |
| 20260508120538 | 55 | 75 | 1.7 | 0.0 | 0.00 | 0.00 | 0.00 | 95 | 1013.6 |
| 20260508120042 | 55 | 90 | 1.7 | 0.0 | 0.00 | 0.00 | 0.00 | 95 | 1013.6 |
| 20260508115540 | 55 | 58 | 1.7 | 0.0 | 0.00 | 0.00 | 0.00 | 95 | 1013.6 |
| 20260508115036 | 55 | 85 | 1.7 | 0.0 | 0.00 | 0.00 | 0.00 | 95 | 1013.6 |
| 20260508114546 | 55 | 27 | 0.9 | 0.0 | 0.00 | 0.00 | 0.00 | 95 | 1013.6 |
| 20260508114038 | 55 | 75 | 0.9 | 0.0 | 0.00 | 0.00 | 0.00 | 95 | 1013.6 |
| 20260508113536 | 55 | 78 | 1.7 | 0.0 | 0.00 | 0.00 | 0.00 | 95 | 1013.6 |
| 20260508113040 | 55 | 63 | 0.9 | 0.0 | 0.00 | 0.00 | 0.00 | 95 | 1013.6 |
| 20260508112536 | 55 | 53 | 1.7 | 0.0 | 0.00 | 0.00 | 0.00 | 95 | 1013.6 |
| 20260508112040 | 55 | 136 | 1.7 | 0.0 | 0.00 | 0.00 | 0.00 | 95 | 1013.6 |
| 20260508111541 | 55 | 70 | 1.7 | 0.0 | 0.00 | 0.00 | 0.00 | 95 | 1013.6 |
| 20260508111037 | 55 | 48 | 1.7 | 0.0 | 0.00 | 0.00 | 0.00 | 95 | 1013.5 |
| 20260508110535 | 55 | 87 | 1.7 | 0.0 | 0.00 | 0.00 | 0.00 | 95 | 1013.5 |
| 20260508110034 | 55 | 63 | 0.9 | 0.0 | 0.00 | 0.00 | 0.00 | 95 | 1013.5 |
| 20260508105534 | 55 | 136 | 0.0 | 0.0 | 0.00 | 0.00 | 0.00 | 95 | 1013.6 |
| 20260508105033 | 55 | 140 | 0.9 | 0.0 | 0.00 | 0.00 | 0.00 | 95 | 1013.6 |
| 20260508104533 | 55 | 85 | 0.9 | 0.0 | 0.00 | 0.00 | 0.00 | 95 | 1013.6 |
| 20260508104033 | 55 | 80 | 0.9 | 0.0 | 0.00 | 0.00 | 0.00 | 95 | 1013.6 |
| 20260508103533 | 54 | 130 | 0.9 | 0.0 | 0.00 | 0.00 | 0.00 | 95 | 1013.6 |
| 20260508103038 | 54 | 77 | 0.9 | 0.0 | 0.00 | 0.00 | 0.00 | 95 | 1013.6 |
| 20260508102533 | 54 | 35 | 0.9 | 0.0 | 0.00 | 0.00 | 0.00 | 95 | 1013.6 |
| 20260508102033 | 54 | 107 | 0.9 | 0.0 | 0.00 | 0.00 | 0.00 | 95 | 1013.6 |
| 20260508101533 | 54 | 122 | 0.9 | 0.0 | 0.00 | 0.00 | 0.00 | 95 | 1013.6 |
| 20260508101032 | 54 | 98 | 0.9 | 0.0 | 0.00 | 0.00 | 0.00 | 95 | 1013.6 |
| 20260508100532 | 54 | 67 | 0.9 | 0.0 | 0.00 | 0.00 | 0.00 | 95 | 1013.6 |
| 20260508100031 | 54 | 95 | 0.9 | 0.0 | 0.00 | 0.00 | 0.00 | 95 | 1013.6 |
| 20260508095531 | 54 | 97 | 0.9 | 0.0 | 0.00 | 0.00 | 0.00 | 95 | 1013.6 |
| 20260508095032 | 54 | 120 | 0.9 | 0.0 | 0.00 | 0.00 | 0.00 | 95 | 1013.6 |
| 20260508094532 | 54 | 153 | 0.9 | 0.0 | 0.00 | 0.00 | 0.00 | 95 | 1013.6 |
| 20260508094030 | 54 | 120 | 0.9 | 0.0 | 0.00 | 0.00 | 0.00 | 95 | 1013.7 |
| 20260508093530 | 54 | 134 | 0.9 | 0.0 | 0.00 | 0.00 | 0.00 | 95 | 1013.7 |
| 20260508093034 | 54 | 166 | 0.9 | 0.0 | 0.00 | 0.00 | 0.00 | 95 | 1013.7 |
| 20260508092531 | 54 | 142 | 0.9 | 0.0 | 0.00 | 0.00 | 0.00 | 95 | 1013.7 |
| 20260508092029 | 54 | 132 | 0.9 | 0.0 | 0.00 | 0.00 | 0.00 | 95 | 1013.7 |
| 20260508091535 | 55 | 165 | 0.9 | 0.0 | 0.00 | 0.00 | 0.00 | 95 | 1013.7 |
| 20260508091032 | 55 | 139 | 0.9 | 0.0 | 0.00 | 0.00 | 0.00 | 95 | 1014.0 |
| 20260508090528 | 55 | 161 | 0.9 | 0.0 | 0.00 | 0.00 | 0.00 | 95 | 1014.0 |
| 20260508090028 | 55 | 161 | 0.9 | 0.0 | 0.00 | 0.00 | 0.00 | 95 | 1014.0 |
| 20260508085527 | 55 | 161 | 0.9 | 0.0 | 0.00 | 0.00 | 0.00 | 95 | 1014.1 |
| 20260508085027 | 55 | 144 | 0.9 | 0.0 | 0.00 | 0.00 | 0.00 | 95 | 1014.1 |
| 20260508084527 | 55 | 144 | 0.9 | 0.0 | 0.00 | 0.00 | 0.00 | 95 | 1014.1 |
| 20260508084027 | 55 | 133 | 0.9 | 0.0 | 0.00 | 0.00 | 0.00 | 95 | 1014.1 |
| 20260508083527 | 55 | 132 | 0.9 | 0.0 | 0.00 | 0.00 | 0.00 | 95 | 1014.1 |
| 20260508083026 | 55 | 39 | 0.9 | 0.0 | 0.00 | 0.00 | 0.00 | 95 | 1014.1 |
| 20260508082526 | 55 | 67 | 0.9 | 0.0 | 0.00 | 0.00 | 0.00 | 95 | 1014.2 |
| 20260508082027 | 55 | 69 | 0.9 | 0.0 | 0.00 | 0.00 | 0.00 | 95 | 1014.2 |
| 20260508081553 | 55 | 59 | 0.9 | 0.0 | 0.00 | 0.00 | 0.00 | 95 | 1014.2 |
| 20260508081025 | 55 | 46 | 0.9 | 0.0 | 0.00 | 0.00 | 0.00 | 95 | 1014.3 |
| 20260508080525 | 55 | 76 | 0.9 | 0.0 | 0.00 | 0.00 | 0.00 | 95 | 1014.3 |
| 20260508080025 | 55 | 64 | 0.0 | 0.0 | 0.00 | 0.00 | 0.00 | 95 | 1014.3 |
| 20260508075523 | 55 | 64 | 0.0 | 0.0 | 0.00 | 0.00 | 0.00 | 95 | 1014.2 |
| 20260508075023 | 54 | 64 | 0.0 | 0.0 | 0.00 | 0.00 | 0.00 | 95 | 1014.2 |
| 20260508074524 | 54 | 64 | 0.9 | 0.0 | 0.00 | 0.00 | 0.00 | 95 | 1014.2 |
| 20260508074023 | 54 | 64 | 0.9 | 0.0 | 0.00 | 0.00 | 0.00 | 95 | 1014.2 |
| 20260508073526 | 54 | 128 | 0.0 | 0.0 | 0.00 | 0.00 | 0.00 | 95 | 1014.2 |
| 20260508073022 | 55 | 155 | 0.0 | 0.0 | 0.00 | 0.00 | 0.00 | 95 | 1014.2 |
| 20260508072521 | 55 | 155 | 0.0 | 0.0 | 0.00 | 0.00 | 0.00 | 95 | 1014.2 |
| 20260508072023 | 55 | 135 | 0.0 | 0.0 | 0.00 | 0.00 | 0.00 | 95 | 1014.2 |
| 20260508071536 | 55 | 135 | 0.9 | 0.0 | 0.00 | 0.00 | 0.00 | 95 | 1014.2 |
| 20260508071021 | 55 | 175 | 0.9 | 0.0 | 0.00 | 0.00 | 0.00 | 95 | 1014.3 |
| 20260508070524 | 55 | 175 | 0.9 | 0.0 | 0.00 | 0.00 | 0.00 | 95 | 1014.3 |
| 20260508070020 | 55 | 157 | 0.9 | 0.0 | 0.00 | 0.00 | 0.00 | 95 | 1014.3 |
| 20260508065522 | 55 | 157 | 0.9 | 0.0 | 0.00 | 0.00 | 0.00 | 94 | 1014.2 |
| 20260508065019 | 55 | 157 | 0.9 | 0.0 | 0.00 | 0.00 | 0.00 | 94 | 1014.2 |
| 20260508064519 | 55 | 124 | 0.9 | 0.0 | 0.00 | 0.00 | 0.00 | 94 | 1014.2 |
| 20260508064019 | 55 | 147 | 0.9 | 0.0 | 0.00 | 0.00 | 0.00 | 94 | 1014.2 |
| 20260508063521 | 55 | 193 | 0.9 | 0.0 | 0.00 | 0.00 | 0.00 | 95 | 1014.2 |
| 20260508063030 | 55 | 210 | 0.9 | 0.0 | 0.00 | 0.00 | 0.00 | 95 | 1014.2 |
| 20260508062519 | 55 | 198 | 0.9 | 0.0 | 0.00 | 0.00 | 0.00 | 95 | 1014.2 |
| 20260508062018 | 55 | 196 | 0.9 | 0.0 | 0.00 | 0.00 | 0.00 | 94 | 1014.2 |
| 20260508061518 | 55 | 196 | 0.9 | 0.0 | 0.00 | 0.00 | 0.00 | 94 | 1014.2 |
| 20260508061021 | 55 | 196 | 0.9 | 0.0 | 0.00 | 0.00 | 0.00 | 94 | 1014.3 |
| 20260508060519 | 55 | 194 | 0.9 | 0.0 | 0.00 | 0.00 | 0.00 | 94 | 1014.3 |
| 20260508060018 | 55 | 174 | 0.9 | 0.0 | 0.00 | 0.00 | 0.00 | 94 | 1014.3 |
| 20260508055517 | 55 | 198 | 0.9 | 0.0 | 0.00 | 0.00 | 0.00 | 94 | 1014.3 |
| 20260508055018 | 55 | 198 | 0.9 | 0.0 | 0.00 | 0.00 | 0.00 | 94 | 1014.3 |
| 20260508054518 | 55 | 198 | 0.9 | 0.0 | 0.00 | 0.00 | 0.00 | 94 | 1014.3 |
| 20260508054017 | 55 | 207 | 0.9 | 0.0 | 0.00 | 0.00 | 0.00 | 94 | 1014.3 |
| 20260508053517 | 55 | 200 | 0.9 | 0.0 | 0.00 | 0.00 | 0.00 | 94 | 1014.3 |
| 20260508053021 | 55 | 198 | 0.9 | 0.0 | 0.00 | 0.00 | 0.00 | 94 | 1014.3 |
| 20260508052519 | 55 | 171 | 0.9 | 0.0 | 0.00 | 0.00 | 0.00 | 94 | 1014.3 |
| 20260508052017 | 55 | 194 | 1.7 | 0.0 | 0.00 | 0.00 | 0.00 | 94 | 1014.3 |
| 20260508051517 | 55 | 186 | 1.7 | 0.0 | 0.00 | 0.00 | 0.00 | 94 | 1014.3 |
| 20260508051017 | 55 | 175 | 0.9 | 0.0 | 0.00 | 0.00 | 0.00 | 94 | 1014.3 |
| 20260508050517 | 56 | 202 | 1.7 | 0.0 | 0.00 | 0.00 | 0.00 | 94 | 1014.3 |
| 20260508050017 | 56 | 202 | 1.7 | 0.0 | 0.00 | 0.00 | 0.00 | 94 | 1014.3 |
| 20260508045516 | 56 | 184 | 1.7 | 0.0 | 0.00 | 0.00 | 0.00 | 94 | 1014.3 |
| 20260508045016 | 56 | 180 | 1.7 | 0.0 | 0.00 | 0.00 | 0.00 | 94 | 1014.3 |
| 20260508044516 | 56 | 184 | 1.7 | 0.0 | 0.00 | 0.00 | 0.00 | 94 | 1014.3 |
| 20260508044016 | 56 | 186 | 1.7 | 0.0 | 0.00 | 0.00 | 0.00 | 94 | 1014.2 |
| 20260508043515 | 56 | 198 | 1.7 | 0.0 | 0.00 | 0.00 | 0.00 | 94 | 1014.2 |
| 20260508043019 | 56 | 180 | 1.7 | 0.0 | 0.00 | 0.00 | 0.00 | 94 | 1014.2 |
| 20260508042519 | 56 | 197 | 1.7 | 0.0 | 0.00 | 0.00 | 0.00 | 94 | 1013.9 |
| 20260508042015 | 56 | 201 | 1.7 | 0.0 | 0.00 | 0.00 | 0.00 | 93 | 1013.9 |
| 20260508041515 | 56 | 190 | 1.7 | 0.0 | 0.00 | 0.00 | 0.00 | 93 | 1013.9 |
| 20260508041015 | 56 | 178 | 1.7 | 0.0 | 0.00 | 0.00 | 0.00 | 93 | 1013.8 |
| 20260508040514 | 56 | 169 | 1.7 | 0.0 | 0.00 | 0.00 | 0.00 | 93 | 1013.8 |
| 20260508040014 | 56 | 175 | 0.9 | 0.0 | 0.00 | 0.00 | 0.00 | 93 | 1013.8 |
| 20260508035514 | 56 | 206 | 0.9 | 0.0 | 0.00 | 0.00 | 0.00 | 93 | 1013.7 |
| 20260508035014 | 56 | 198 | 1.7 | 0.0 | 0.00 | 0.00 | 0.00 | 92 | 1013.7 |
| 20260508034514 | 56 | 179 | 1.7 | 0.0 | 0.00 | 0.00 | 0.00 | 92 | 1013.7 |
| 20260508034014 | 56 | 181 | 1.7 | 0.0 | 0.00 | 0.00 | 0.00 | 91 | 1013.4 |
| 20260508033514 | 56 | 193 | 1.7 | 0.0 | 0.00 | 0.00 | 0.00 | 91 | 1013.4 |
| 20260508033017 | 56 | 173 | 0.9 | 0.0 | 0.00 | 0.00 | 0.00 | 91 | 1013.4 |
| 20260508032518 | 56 | 231 | 0.9 | 0.0 | 0.00 | 0.00 | 0.00 | 91 | 1013.3 |
| 20260508032013 | 56 | 231 | 0.9 | 0.0 | 0.00 | 0.00 | 0.00 | 91 | 1013.3 |
| 20260508031513 | 55 | 248 | 0.9 | 0.0 | 0.00 | 0.00 | 0.00 | 92 | 1013.3 |
| 20260508031013 | 55 | 75 | 0.9 | 0.0 | 0.00 | 0.00 | 0.00 | 92 | 1013.2 |
| 20260508030513 | 56 | 42 | 0.9 | 0.0 | 0.00 | 0.00 | 0.00 | 92 | 1013.2 |
| 20260508030013 | 56 | 128 | 0.9 | 0.0 | 0.00 | 0.00 | 0.00 | 92 | 1013.2 |
| 20260508025515 | 56 | 169 | 0.0 | 0.0 | 0.00 | 0.00 | 0.00 | 92 | 1012.9 |
| 20260508025012 | 56 | 169 | 0.0 | 0.0 | 0.00 | 0.00 | 0.00 | 92 | 1012.9 |
| 20260508024521 | 56 | 169 | 0.9 | 0.0 | 0.00 | 0.00 | 0.00 | 92 | 1012.9 |
| 20260508024014 | 56 | 189 | 1.7 | 0.0 | 0.00 | 0.00 | 0.00 | 92 | 1012.8 |
| 20260508023512 | 57 | 189 | 1.7 | 0.0 | 0.00 | 0.00 | 0.00 | 92 | 1012.8 |
| 20260508023020 | 57 | 201 | 1.7 | 0.0 | 0.00 | 0.00 | 0.00 | 92 | 1012.8 |
| 20260508022512 | 57 | 207 | 2.6 | 0.0 | 0.00 | 0.00 | 0.00 | 92 | 1012.7 |
| 20260508022012 | 57 | 360 | 2.6 | 0.0 | 0.00 | 0.00 | 0.00 | 91 | 1012.7 |
| 20260508021512 | 58 | 192 | 3.5 | 0.0 | 0.00 | 0.00 | 0.00 | 90 | 1012.7 |
| 20260508021011 | 58 | 202 | 3.5 | 0.0 | 0.00 | 0.00 | 0.00 | 90 | 1012.8 |
| 20260508020511 | 59 | 177 | 2.6 | 0.0 | 0.00 | 0.00 | 0.00 | 89 | 1012.8 |
| 20260508020011 | 59 | 156 | 2.6 | 0.0 | 0.00 | 0.00 | 0.00 | 88 | 1012.8 |
| 20260508015511 | 59 | 173 | 2.6 | 0.0 | 0.00 | 0.00 | 0.00 | 87 | 1012.7 |
| 20260508015011 | 60 | 182 | 2.6 | 0.0 | 0.00 | 0.00 | 0.00 | 86 | 1012.7 |
| 20260508014511 | 60 | 173 | 2.6 | 0.0 | 0.00 | 0.00 | 0.00 | 86 | 1012.7 |
| 20260508014009 | 61 | 163 | 2.6 | 0.0 | 0.00 | 0.00 | 0.00 | 85 | 1012.6 |
| 20260508013514 | 61 | 192 | 2.6 | 0.0 | 0.00 | 0.00 | 0.00 | 84 | 1012.6 |
| 20260508013010 | 62 | 360 | 1.7 | 0.0 | 0.00 | 0.00 | 0.00 | 84 | 1012.6 |
| 20260508012510 | 62 | 172 | 1.7 | 0.0 | 0.00 | 0.00 | 0.00 | 83 | 1012.5 |
| 20260508012011 | 62 | 185 | 1.7 | 0.0 | 0.00 | 0.00 | 0.00 | 83 | 1012.5 |
| 20260508011509 | 62 | 197 | 1.7 | 0.0 | 0.00 | 0.00 | 0.00 | 83 | 1012.5 |
| 20260508011009 | 62 | 360 | 2.6 | 0.0 | 0.00 | 0.00 | 0.00 | 83 | 1012.7 |
| 20260508010509 | 62 | 179 | 2.6 | 0.0 | 0.00 | 0.00 | 0.00 | 82 | 1012.7 |
| 20260508010010 | 63 | 177 | 2.6 | 0.0 | 0.00 | 0.00 | 0.00 | 82 | 1012.7 |
| 20260508005508 | 63 | 161 | 2.6 | 0.0 | 0.00 | 0.00 | 0.00 | 82 | 1012.6 |
| 20260508005012 | 63 | 174 | 2.6 | 0.0 | 0.00 | 0.00 | 0.00 | 82 | 1012.6 |
| 20260508004508 | 63 | 198 | 2.6 | 0.0 | 0.00 | 0.00 | 0.00 | 81 | 1012.6 |
| 20260508004012 | 64 | 188 | 2.6 | 0.0 | 0.00 | 0.00 | 0.00 | 80 | 1012.7 |
| 20260508003512 | 64 | 161 | 1.7 | 0.0 | 0.00 | 0.00 | 0.00 | 80 | 1012.7 |
| 20260508003009 | 65 | 157 | 1.7 | 0.0 | 0.00 | 0.00 | 0.00 | 79 | 1012.7 |
| 20260508002511 | 65 | 159 | 1.7 | 0.0 | 0.00 | 0.00 | 0.00 | 79 | 1012.7 |
| 20260508002008 | 65 | 169 | 1.7 | 0.0 | 0.00 | 0.00 | 0.00 | 79 | 1012.7 |
| 20260508001508 | 65 | 187 | 2.6 | 0.0 | 0.00 | 0.00 | 0.00 | 79 | 1012.7 |
| 20260508001007 | 65 | 209 | 2.6 | 0.0 | 0.00 | 0.00 | 0.00 | 79 | 1012.6 |
| 20260508000508 | 66 | 169 | 2.6 | 0.0 | 0.00 | 0.00 | 0.00 | 78 | 1012.6 |
| 20260508000006 | 66 | 219 | 2.6 | 0.0 | 0.00 | 0.00 | 0.00 | 78 | 1012.6 |
| 20260507235510 | 66 | 169 | 1.7 | 0.0 | 0.00 | 0.00 | 0.00 | 79 | 1012.6 |
| 20260507235005 | 65 | 186 | 1.7 | 0.0 | 0.00 | 0.00 | 0.00 | 79 | 1012.6 |
| 20260507234507 | 65 | 188 | 2.6 | 0.0 | 0.00 | 0.00 | 0.00 | 81 | 1012.6 |
| 20260507234006 | 65 | 122 | 2.6 | 0.0 | 0.00 | 0.00 | 0.00 | 81 | 1012.6 |
| 20260507233505 | 65 | 173 | 2.6 | 0.0 | 0.00 | 0.00 | 0.00 | 81 | 1012.6 |
| 20260507233011 | 65 | 164 | 2.6 | 0.0 | 0.00 | 0.00 | 0.00 | 81 | 1012.7 |
| 20260507232506 | 64 | 136 | 3.5 | 0.0 | 0.00 | 0.00 | 0.00 | 81 | 1012.7 |
| 20260507232004 | 64 | 174 | 3.5 | 0.0 | 0.00 | 0.00 | 0.00 | 81 | 1012.7 |
| 20260507231504 | 65 | 176 | 3.5 | 0.0 | 0.00 | 0.00 | 0.00 | 81 | 1012.7 |
| 20260507231004 | 65 | 150 | 3.5 | 0.0 | 0.00 | 0.00 | 0.00 | 81 | 1012.7 |
| 20260507230504 | 65 | 167 | 3.5 | 0.0 | 0.00 | 0.00 | 0.00 | 81 | 1012.7 |
| 20260507230005 | 65 | 155 | 3.5 | 0.0 | 0.00 | 0.00 | 0.00 | 80 | 1012.7 |
| 20260507225503 | 65 | 163 | 2.6 | 0.0 | 0.00 | 0.00 | 0.00 | 81 | 1012.7 |
| 20260507225004 | 65 | 155 | 3.5 | 0.0 | 0.00 | 0.00 | 0.00 | 81 | 1012.7 |
| 20260507224502 | 65 | 167 | 3.5 | 0.0 | 0.00 | 0.00 | 0.00 | 80 | 1013.0 |
| 20260507224004 | 65 | 169 | 2.6 | 0.0 | 0.00 | 0.00 | 0.00 | 79 | 1013.0 |
| 20260507223502 | 66 | 194 | 2.6 | 0.0 | 0.00 | 0.00 | 0.00 | 79 | 1013.0 |
| 20260507223001 | 65 | 166 | 2.6 | 0.0 | 0.00 | 0.00 | 0.00 | 78 | 1013.1 |
| 20260507222603 | 65 | 229 | 2.6 | 0.0 | 0.00 | 0.00 | 0.00 | 79 | 1013.1 |
| 20260507222101 | 65 | 360 | 3.5 | 0.0 | 0.00 | 0.00 | 0.00 | 80 | 1013.1 |
| 20260507221559 | 65 | 159 | 3.5 | 0.0 | 0.00 | 0.00 | 0.00 | 80 | 1013.1 |
| 20260507221058 | 65 | 172 | 2.6 | 0.0 | 0.00 | 0.00 | 0.00 | 80 | 1013.3 |
| 20260507220558 | 65 | 360 | 2.6 | 0.0 | 0.00 | 0.00 | 0.00 | 81 | 1013.3 |
| 20260507220058 | 64 | 196 | 3.5 | 0.0 | 0.00 | 0.00 | 0.00 | 81 | 1013.3 |
| 20260507215558 | 64 | 178 | 3.5 | 0.0 | 0.00 | 0.00 | 0.00 | 80 | 1013.4 |
| 20260507215058 | 65 | 187 | 2.6 | 0.0 | 0.00 | 0.00 | 0.00 | 81 | 1013.4 |
| 20260507214606 | 64 | 163 | 2.6 | 0.0 | 0.00 | 0.00 | 0.00 | 82 | 1013.4 |
| 20260507214057 | 64 | 140 | 2.6 | 0.0 | 0.00 | 0.00 | 0.00 | 81 | 1013.7 |
| 20260507213557 | 64 | 104 | 3.5 | 0.0 | 0.00 | 0.00 | 0.00 | 82 | 1013.7 |
| 20260507213058 | 64 | 205 | 3.5 | 0.0 | 0.00 | 0.00 | 0.00 | 82 | 1013.7 |
| 20260507212556 | 64 | 173 | 2.6 | 0.0 | 0.00 | 0.00 | 0.00 | 82 | 1013.8 |
| 20260507212100 | 64 | 178 | 3.5 | 0.0 | 0.00 | 0.00 | 0.00 | 82 | 1013.8 |
| 20260507211601 | 64 | 166 | 3.5 | 0.0 | 0.00 | 0.00 | 0.00 | 83 | 1013.8 |
| 20260507211056 | 64 | 145 | 3.5 | 0.0 | 0.00 | 0.00 | 0.00 | 82 | 1013.9 |
| 20260507210556 | 64 | 155 | 3.5 | 0.0 | 0.00 | 0.00 | 0.00 | 82 | 1013.9 |
| 20260507205554 | 65 | 213 | 2.6 | 0.0 | 0.00 | 0.00 | 0.00 | 82 | 1014.0 |
| 20260507205055 | 65 | 217 | 3.5 | 0.0 | 0.00 | 0.00 | 0.00 | 81 | 1014.0 |
| 20260507204555 | 65 | 216 | 3.5 | 0.0 | 0.00 | 0.00 | 0.00 | 83 | 1014.0 |
| 20260507204057 | 64 | 167 | 2.6 | 0.0 | 0.00 | 0.00 | 0.00 | 83 | 1014.2 |
| 20260507203554 | 64 | 166 | 3.5 | 0.0 | 0.00 | 0.00 | 0.00 | 83 | 1014.2 |
| 20260507203106 | 64 | 178 | 2.6 | 0.0 | 0.00 | 0.00 | 0.00 | 82 | 1014.2 |
| 20260507202552 | 64 | 172 | 3.5 | 0.0 | 0.00 | 0.00 | 0.00 | 83 | 1014.2 |
| 20260507202052 | 64 | 227 | 3.5 | 0.0 | 0.00 | 0.00 | 0.00 | 81 | 1014.2 |
| 20260507201559 | 64 | 225 | 2.6 | 0.0 | 0.00 | 0.00 | 0.00 | 81 | 1014.2 |
| 20260507201055 | 65 | 186 | 2.6 | 0.0 | 0.00 | 0.00 | 0.00 | 81 | 1014.2 |
| 20260507200553 | 64 | 182 | 2.6 | 0.0 | 0.00 | 0.00 | 0.00 | 82 | 1014.2 |
| 20260507200106 | 64 | 234 | 2.6 | 0.0 | 0.00 | 0.00 | 0.00 | 82 | 1014.2 |
| 20260507195551 | 64 | 201 | 2.6 | 0.0 | 0.00 | 0.00 | 0.00 | 83 | 1014.2 |
| 20260507195052 | 65 | 161 | 2.6 | 0.0 | 0.00 | 0.00 | 0.00 | 81 | 1014.2 |
| 20260507194551 | 65 | 197 | 2.6 | 0.0 | 0.00 | 0.00 | 0.00 | 81 | 1014.2 |
| 20260507194050 | 65 | 179 | 2.6 | 0.0 | 0.00 | 0.00 | 0.00 | 81 | 1014.5 |
| 20260507193550 | 65 | 187 | 2.6 | 0.0 | 0.00 | 0.00 | 0.00 | 80 | 1014.5 |
| 20260507193051 | 65 | 211 | 2.6 | 0.0 | 0.00 | 0.00 | 0.00 | 82 | 1014.5 |
| 20260507192551 | 65 | 165 | 2.6 | 0.0 | 0.00 | 0.00 | 0.00 | 82 | 1014.7 |
| 20260507192050 | 65 | 190 | 2.6 | 0.0 | 0.00 | 0.00 | 0.00 | 81 | 1014.7 |
| 20260507191549 | 64 | 237 | 2.6 | 0.0 | 0.00 | 0.00 | 0.00 | 82 | 1014.7 |
| 20260507191049 | 64 | 198 | 2.6 | 0.0 | 0.00 | 0.00 | 0.00 | 82 | 1014.7 |
| 20260507190551 | 64 | 180 | 2.6 | 0.0 | 0.00 | 0.00 | 0.00 | 81 | 1014.7 |
| 20260507190054 | 64 | 267 | 2.6 | 0.0 | 0.00 | 0.00 | 0.00 | 81 | 1014.7 |
| 20260507185551 | 64 | 164 | 2.6 | 0.0 | 0.00 | 0.00 | 0.00 | 83 | 1014.8 |
| 20260507185046 | 64 | 169 | 2.6 | 0.0 | 0.00 | 0.00 | 0.00 | 83 | 1014.8 |
| 20260507184551 | 64 | 136 | 2.6 | 0.0 | 0.00 | 0.00 | 0.00 | 82 | 1014.8 |
| 20260507184044 | 64 | 171 | 2.6 | 0.0 | 0.00 | 0.00 | 0.00 | 84 | 1014.8 |
| 20260507183544 | 63 | 204 | 2.6 | 0.0 | 0.00 | 0.00 | 0.00 | 84 | 1014.8 |
| 20260507183048 | 63 | 161 | 2.6 | 0.0 | 0.00 | 0.00 | 0.00 | 85 | 1014.8 |
| 20260507182545 | 63 | 159 | 2.6 | 0.0 | 0.00 | 0.00 | 0.00 | 83 | 1014.8 |
| 20260507182046 | 64 | 186 | 2.6 | 0.0 | 0.00 | 0.00 | 0.00 | 83 | 1014.8 |
| 20260507181543 | 64 | 219 | 2.6 | 0.0 | 0.00 | 0.00 | 0.00 | 83 | 1014.8 |
| 20260507181042 | 64 | 201 | 2.6 | 0.0 | 0.00 | 0.00 | 0.00 | 84 | 1014.9 |
| 20260507180544 | 63 | 186 | 1.7 | 0.0 | 0.00 | 0.00 | 0.00 | 84 | 1014.9 |
| 20260507180046 | 63 | 142 | 1.7 | 0.0 | 0.00 | 0.00 | 0.00 | 85 | 1014.9 |
| 20260507175546 | 63 | 160 | 2.6 | 0.0 | 0.00 | 0.00 | 0.00 | 84 | 1014.8 |
| 20260507175038 | 62 | 239 | 2.6 | 0.0 | 0.00 | 0.00 | 0.00 | 85 | 1014.8 |
| 20260507174539 | 62 | 172 | 2.6 | 0.0 | 0.00 | 0.00 | 0.00 | 86 | 1014.8 |
| 20260507174037 | 62 | 176 | 1.7 | 0.0 | 0.00 | 0.00 | 0.00 | 86 | 1015.0 |
| 20260507173537 | 62 | 200 | 1.7 | 0.0 | 0.00 | 0.00 | 0.00 | 87 | 1015.0 |
| 20260507173037 | 61 | 161 | 1.7 | 0.0 | 0.00 | 0.00 | 0.00 | 87 | 1015.0 |
| 20260507172538 | 61 | 123 | 2.6 | 0.0 | 0.00 | 0.00 | 0.00 | 87 | 1015.0 |
| 20260507172036 | 61 | 149 | 2.6 | 0.0 | 0.00 | 0.00 | 0.00 | 87 | 1015.0 |
| 20260507171536 | 61 | 132 | 2.6 | 0.0 | 0.00 | 0.00 | 0.00 | 86 | 1015.0 |
| 20260507171036 | 62 | 188 | 2.6 | 0.0 | 0.00 | 0.00 | 0.00 | 86 | 1015.0 |
| 20260507170536 | 62 | 159 | 1.7 | 0.0 | 0.00 | 0.00 | 0.00 | 85 | 1015.0 |
| 20260507170036 | 62 | 184 | 1.7 | 0.0 | 0.00 | 0.00 | 0.00 | 87 | 1015.0 |
| 20260507165533 | 62 | 209 | 1.7 | 0.0 | 0.00 | 0.00 | 0.00 | 88 | 1015.0 |
| 20260507165034 | 61 | 238 | 1.7 | 0.0 | 0.00 | 0.00 | 0.00 | 88 | 1015.0 |
| 20260507164541 | 61 | 166 | 1.7 | 0.0 | 0.00 | 0.00 | 0.00 | 86 | 1015.0 |
| 20260507164032 | 61 | 151 | 1.7 | 0.0 | 0.00 | 0.00 | 0.00 | 88 | 1015.0 |
| 20260507163531 | 61 | 221 | 1.7 | 0.0 | 0.00 | 0.00 | 0.00 | 88 | 1015.0 |
| 20260507163031 | 61 | 213 | 1.7 | 0.0 | 0.00 | 0.00 | 0.00 | 88 | 1015.0 |
| 20260507162531 | 61 | 192 | 1.7 | 0.0 | 0.00 | 0.00 | 0.00 | 89 | 1015.0 |
| 20260507162030 | 60 | 207 | 1.7 | 0.0 | 0.00 | 0.00 | 0.00 | 88 | 1015.0 |
| 20260507161530 | 60 | 211 | 0.9 | 0.0 | 0.00 | 0.00 | 0.00 | 89 | 1015.0 |
| 20260507161028 | 60 | 113 | 0.9 | 0.0 | 0.00 | 0.00 | 0.00 | 90 | 1015.1 |
| 20260507160527 | 60 | 163 | 1.7 | 0.0 | 0.00 | 0.00 | 0.00 | 90 | 1015.1 |
| 20260507160028 | 59 | 169 | 1.7 | 0.0 | 0.00 | 0.00 | 0.00 | 90 | 1015.1 |
| 20260507155525 | 59 | 165 | 1.7 | 0.0 | 0.00 | 0.00 | 0.00 | 91 | 1015.0 |
| 20260507155025 | 59 | 165 | 1.7 | 0.0 | 0.00 | 0.00 | 0.00 | 91 | 1015.0 |
| 20260507154525 | 59 | 157 | 1.7 | 0.0 | 0.00 | 0.00 | 0.00 | 90 | 1015.0 |
| 20260507154025 | 59 | 190 | 1.7 | 0.0 | 0.00 | 0.00 | 0.00 | 90 | 1015.0 |
| 20260507153525 | 59 | 146 | 1.7 | 0.0 | 0.00 | 0.00 | 0.00 | 90 | 1015.0 |
| 20260507153025 | 59 | 179 | 0.9 | 0.0 | 0.00 | 0.00 | 0.00 | 91 | 1015.0 |
| 20260507152524 | 59 | 136 | 0.9 | 0.0 | 0.00 | 0.00 | 0.00 | 90 | 1015.1 |
| 20260507152024 | 59 | 196 | 1.7 | 0.0 | 0.00 | 0.00 | 0.00 | 90 | 1015.1 |
| 20260507151523 | 59 | 155 | 1.7 | 0.0 | 0.00 | 0.00 | 0.00 | 90 | 1015.1 |
| 20260507151023 | 58 | 153 | 0.9 | 0.0 | 0.00 | 0.00 | 0.00 | 90 | 1015.1 |
| 20260507150521 | 58 | 148 | 0.9 | 0.0 | 0.00 | 0.00 | 0.00 | 90 | 1015.1 |
| 20260507150024 | 57 | 28 | 0.9 | 0.0 | 0.00 | 0.00 | 0.00 | 91 | 1015.1 |
| 20260507145521 | 57 | 169 | 0.9 | 0.0 | 0.00 | 0.00 | 0.00 | 91 | 1015.0 |
| 20260507145018 | 57 | 169 | 0.9 | 0.0 | 0.00 | 0.00 | 0.00 | 91 | 1015.0 |
| 20260507144524 | 56 | 164 | 0.9 | 0.0 | 0.00 | 0.00 | 0.00 | 91 | 1015.0 |
| 20260507144017 | 56 | 164 | 0.9 | 0.0 | 0.00 | 0.00 | 0.00 | 91 | 1015.1 |
| 20260507143515 | 56 | 164 | 0.9 | 0.0 | 0.00 | 0.00 | 0.00 | 92 | 1015.1 |
| 20260507143015 | 56 | 164 | 0.0 | 0.0 | 0.00 | 0.00 | 0.00 | 92 | 1015.1 |
| 20260507142514 | 56 | 164 | 0.0 | 0.0 | 0.00 | 0.00 | 0.00 | 93 | 1015.0 |
| 20260507142015 | 55 | 164 | 0.0 | 0.0 | 0.00 | 0.00 | 0.00 | 93 | 1015.0 |
| 20260507141514 | 55 | 164 | 0.0 | 0.0 | 0.00 | 0.00 | 0.00 | 93 | 1015.0 |
| 20260507141014 | 55 | 164 | 0.0 | 0.0 | 0.00 | 0.00 | 0.00 | 94 | 1014.8 |
| 20260507140515 | 55 | 164 | 0.0 | 0.0 | 0.00 | 0.00 | 0.00 | 94 | 1014.8 |
| 20260507140013 | 54 | 164 | 0.0 | 0.0 | 0.00 | 0.00 | 0.00 | 94 | 1014.8 |
| 20260507135512 | 54 | 164 | 0.0 | 0.0 | 0.00 | 0.00 | 0.00 | 94 | 1014.7 |
| 20260507135012 | 53 | 164 | 0.0 | 0.0 | 0.00 | 0.00 | 0.00 | 94 | 1014.7 |
| 20260507134513 | 53 | 164 | 0.0 | 0.0 | 0.00 | 0.00 | 0.00 | 94 | 1014.7 |